This is the latest recevied weather packets stored in our database for station/object ON7XX-13. If no packets are shown the sender has not sent any weather packets the latest 10 day(s).
| Time | Temp. | Humidity | Pressure | Rain* | Wind** | Luminosity | Snow |
|---|---|---|---|---|---|---|---|
| 1777928965 | 15° C | 83% | 1015.2 hPa | - | - | - | - |
| 1777928350 | 15° C | 83% | 1015.3 hPa | - | - | - | - |
| 1777927736 | 15° C | 82% | 1015.3 hPa | - | - | - | - |
| 1777927122 | 15° C | 82% | 1015.3 hPa | - | - | - | - |
| 1777926508 | 15° C | 82% | 1015.3 hPa | - | - | - | - |
| 1777925893 | 15.56° C | 81% | 1015.3 hPa | - | - | - | - |
| 1777925279 | 15.56° C | 80% | 1015.2 hPa | - | - | - | - |
| 1777924665 | 15.56° C | 80% | 1015.1 hPa | - | - | - | - |
| 1777924050 | 16.11° C | 79% | 1014.9 hPa | - | - | - | - |
| 1777923436 | 16.11° C | 78% | 1014.8 hPa | - | - | - | - |
| 1777922821 | 16.11° C | 78% | 1014.8 hPa | - | - | - | - |
| 1777922207 | 16.67° C | 78% | 1014.7 hPa | - | - | - | - |
| 1777921593 | 16.67° C | 77% | 1014.6 hPa | - | - | - | - |
| 1777920979 | 17.22° C | 77% | 1014.6 hPa | - | - | - | - |
| 1777920364 | 17.22° C | 75% | 1014.4 hPa | - | - | - | - |
| 1777919750 | 17.22° C | 74% | 1014.4 hPa | - | - | - | - |
| 1777919136 | 17.78° C | 73% | 1014.2 hPa | - | - | - | - |
| 1777918522 | 18.33° C | 73% | 1014.2 hPa | - | - | - | - |
| 1777917908 | 18.33° C | 71% | 1014 hPa | - | - | - | - |
| 1777917294 | 18.89° C | 70% | 1014.1 hPa | - | - | - | - |
| 1777916679 | 19.44° C | 70% | 1014.1 hPa | - | - | - | - |
| 1777916065 | 20° C | 69% | 1014.1 hPa | - | - | - | - |
| 1777915451 | 20° C | 68% | 1014.1 hPa | - | - | - | - |
| 1777914836 | 20.56° C | 68% | 1014.2 hPa | - | - | - | - |
| 1777914222 | 21.11° C | 68% | 1014.1 hPa | - | - | - | - |
* Rain since midnight (hover to see other rain measurements)
** Current wind speed in m/s (hover to see current wind gust speed)